Location: Stanford
(52.2833°N, 2.4333°W)
Time: 18:41:45
(UTC+00:00)

Cosmos 1844 - Pass Details

Date: 22 January 2021
Orbit: 821 x 869 km, 70.9° (Epoch: 27 February)

Event Time Altitude Azimuth Distance (km) Brightness Sun altitude
Rises 19:02:01 0° 209° (SSW) 3,382 7.3 -21.4°
Reaches altitude 10° 19:04:26 10° 210° (SSW) 2,459 6.5 -21.8°
Maximum altitude 19:10:06 89° 297° (WNW) 860 3.6 -22.7°
Enters shadow 19:12:56 32° 30° (NNE) 1,443 4.6 -23.1°
